Regional Weather Roundup
Issued by NWS Cleveland, OH

Home | Current Version | Previous Version | Text Only | Print | Product List | Glossary On
Versions: 1 2 3 4 5 6 7 8 9 10 11 12 13 14 15 16 17 18 19 20 21 22 23 24 25 26 27 28 29 30 31 32 33 34 35 36 37 38 39 40 41 42 43 44 45 46 47 48 49 50
000
ASUS41 KCLE 181000
RWRCLE
OHIO REGIONAL WEATHER ROUNDUP
NATIONAL WEATHER SERVICE WILMINGTON, OH
500 AM EST THU DEC 18 2014

NOTE: "FAIR" INDICATES FEW OR NO CLOUDS BELOW 12,000 FEET WITH NO
SIGNIFICANT WEATHER AND/OR OBSTRUCTIONS TO VISIBILITY.

OHZ001>008-015>018-024>027-034-035-043-044-181100-
   NORTHWEST OHIO

CITY           SKY/WX    TMP DP  RH WIND       PRES   REMARKS
DEFIANCE       NOT AVBL
FINDLAY        CLOUDY    29  22  75 W9        30.22F WCI  20
TOLEDO EXPRESS CLOUDY    29  21  72 W9        30.21F WCI  20
TOLEDO METCALF CLOUDY    30  21  69 W8        30.23S WCI  22
LIMA           CLOUDY    30  21  69 W10       30.23F WCI  21
$$

OHZ009>014-019>023-028>033-038-089-181100-
   NORTHEAST OHIO

CITY           SKY/WX    TMP DP  RH WIND       PRES   REMARKS
CLE-HOPKINS    CLOUDY    29  21  72 W10       30.21S WCI  20
CLE-LAKEFRONT  CLOUDY    32  24  72 W16       30.18S WCI  21
CUY CO. ARPT   NOT AVBL
LORAIN-ELYRIA  CLOUDY    28  21  75 W10       30.20S WCI  19
ASHTABULA      CLOUDY    30  23  75 NW7       30.14F WCI  23
AKRON-CANTON   CLOUDY    28  19  69 W8        30.16F WCI  20
WOOSTER        NOT AVBL
MANSFIELD      CLOUDY    26  21  81 W8        30.19F WCI  18
YOUNGSTOWN     CLOUDY    28  19  69 W7        30.14F WCI  21
$$

OHZ042-051>053-060>062-070>072-077>081-181100-
  SOUTHWEST OHIO

CITY           SKY/WX    TMP DP  RH WIND       PRES   REMARKS
CINC-COVINGTON CLOUDY    26  18  71 NE7       30.26F WCI  18
CINC-LUNKEN    CLOUDY    26  19  74 N5        30.30F WCI  20
HAMILTON       CLOUDY    27  20  75 CALM      30.28F
DAYTON         NOT AVBL
WRIGHT-PAT AFB CLOUDY    27  18  70 NW7       30.25F WCI  19
DAYTON GENERAL CLOUDY    26  17  68 N8        30.24F WCI  18
WILMINGTON     CLOUDY    25  18  74 NW5       30.24F WCI  19
$$

OHZ036-037-039>041-045>050-054>059-063>069-073>076-082>088-181100-
  CENTRAL AND SOUTHEAST OHIO

CITY           SKY/WX    TMP DP  RH WIND       PRES   REMARKS
COLUMBUS       CLOUDY    27  18  69 NW9       30.25R WCI  18
OSU AIRPORT    CLOUDY    27  19  72 W9        30.24S WCI  18
BOLTON FIELD   NOT AVBL
RICKENBACK AFB NOT AVBL
NEWARK         CLOUDY    28  19  69 W5        30.23F WCI  23
MARION         CLOUDY    27  20  75 NW8       30.23S WCI  19
LANCASTER      CLOUDY    28  20  71 W5        30.25S WCI  23
ZANESVILLE     CLOUDY    27  18  69 NW7       30.23S WCI  19
NEW PHILLY     CLOUDY    29  21  72 W8        30.21F WCI  21
$$


USA.gov is the U.S. government's official web portal to all federal, state and local government web resources and services.